Simultaneous Nadir Overpasses (SNOs) Predictions

Prediction of SNOs between LANDSAT-8 and NOAA-19 Satellite Orbit:

Table of predicted SNOs for the next 14.0 days since TLE Epoch: 3/6/2015
Index Date (LANDSAT-8) Time (LANDSAT-8) Lat,Lon (LANDSAT-8) SZA (LANDSAT-8 ) Date (NOAA-19) Time (NOAA-19) Lat,Lon (NOAA-19) SZA (NOAA-19 ) Distance(km) Time Diff (sec)
1 03/07/2015 12:37:09 -72.92, 171.48 101.89 03/07/2015 12:36:30 -72.89, 171.48 101.91 2.85 39
2 03/07/2015 13:26:36 72.83, -21.04 78.02 03/07/2015 13:27:33 72.82, -21.13 78.00 3.33 57
3 03/09/2015 17:21:19 -73.20, 100.96 102.47 03/09/2015 17:20:07 -73.27, 99.78 102.38 38.92 72
4 03/09/2015 18:10:51 72.85, -92.09 77.17 03/09/2015 18:11:02 72.83, -92.00 77.16 3.12 11
5 03/11/2015 22:55:05 72.89,-163.06 76.36 03/11/2015 22:54:32 72.91,-163.01 76.38 2.65 33
6 03/11/2015 23:44:34 -72.82, 4.44 103.73 03/11/2015 23:45:30 -72.83, 4.42 103.73 0.86 56
7 03/14/2015 03:39:17 73.03, 126.14 75.62 03/14/2015 03:38:04 73.10, 125.74 75.70 14.86 73
8 03/14/2015 04:28:47 -72.91, -66.46 104.51 03/14/2015 04:29:00 -72.88, -66.53 104.54 3.39 13
9 03/16/2015 09:13:01 -72.92,-137.51 105.37 03/16/2015 09:12:30 -72.95,-137.51 105.34 3.31 31
10 03/16/2015 10:02:28 72.82, 29.95 74.52 03/16/2015 10:03:30 72.85, 29.95 74.55 3.06 62
11 03/18/2015 13:57:13 -73.02, 151.62 106.15 03/18/2015 13:56:00 -73.02, 151.49 106.14 4.22 73
12 03/18/2015 14:46:40 72.92, -40.93 73.75 03/18/2015 14:46:59 72.91, -41.01 73.74 2.94 19




NCC Satellite Simultaneous Nadir Overpasses (SNOs) Prediction Service
